Lamoni, IA

6:50 PM CDT on August 31, 2016 (GMT -0500)
Lamoni Municipal

Weather History for KLWD - June, 2014

Change the Weather History Date:

Sunday, June 1, 2014

  Actual Average Record
Temperature  
Mean Temperature 75 °F 67 °F  
Max Temperature 85 °F 77 °F 89 °F (1986)
Min Temperature 64 °F 57 °F 42 °F (2001)
Degree Days  
Heating Degree Days 0 2  
Month to date heating degree days 0 2  
Since 1 June heating degree days 0 2  
Since 1 July heating degree days 6765 6062  
Cooling Degree Days 10 3  
Month to date cooling degree days 10 3  
Year to date cooling degree days 122 57  
Since 1 June cooling degree days 10 3  
Growing Degree Days 24 (Base 50)    
Moisture  
Dew Point 65 °F    
Average Humidity 74    
Maximum Humidity 93    
Minimum Humidity 55    
Precipitation  
Precipitation 0.14 in 0.19 in 2.18 in (1980)
Month to date precipitation 0.14 0.19  
Sea Level Pressure  
Sea Level Pressure 29.87 in    
Wind  
Wind Speed 12 mph (SSW)    
Max Wind Speed 23 mph    
Max Gust Speed 29 mph    
Visibility 9 miles    
Events Rain , Thunderstorm    
T = Trace of Precipitation, MM = Missing Value Source: NWS Daily Summary

Daily Weather History Graph

Daily Weather History Graph

Search for Another Location

Airport or City:

Trip Planner

Search our weather history database for the weather conditions in past years. The results will help you decide how hot, cold, wet, or windy it might be!

Date:

Astronomy

Jun. 01, 2014 Rise Set
Actual Time 5:46 AM CDT 8:40 PM CDT
Civil Twilight 5:14 AM CDT 9:13 PM CDT
Nautical Twilight 4:33 AM CDT 9:54 PM CDT
Astronomical Twilight 3:45 AM CDT 10:41 PM CDT
Moon 9:19 AM CDT (6/1) 11:35 PM CDT (6/1)
Length of Visible Light 15h 58m
Length of Day
14h 53m
Waxing Crescent, 14% of the Moon is Illuminated
Jun 1
Waxing Crescent
Jun 5
First Quarter
Jun 12
Full
Jun 19
Last Quarter
Jun 27
New

Hourly Weather History & Observations

Time (CDT) Temp. Heat Index Dew Point Humidity Pressure Visibility Wind Dir Wind Speed Gust Speed Precip Events Conditions
12:53 AM 70.0 °F - 66.0 °F 87% 29.96 in 10.0 mi SSE 6.9 mph - N/A   Clear
1:53 AM 70.0 °F - 66.0 °F 87% 29.96 in 10.0 mi SSE 8.1 mph - N/A   Clear
2:53 AM 70.0 °F - 66.0 °F 87% 29.95 in 10.0 mi South 8.1 mph - N/A   Clear
3:53 AM 69.1 °F - 66.0 °F 90% 29.94 in 10.0 mi South 8.1 mph - N/A   Clear
4:53 AM 69.1 °F - 64.9 °F 87% 29.94 in 10.0 mi South 8.1 mph - N/A   Clear
5:53 AM 68.0 °F - 64.9 °F 90% 29.93 in 10.0 mi South 10.4 mph - N/A   Clear
6:53 AM 69.1 °F - 66.0 °F 90% 29.94 in 10.0 mi South 8.1 mph - N/A   Clear
7:53 AM 72.0 °F - 66.9 °F 84% 29.95 in 10.0 mi South 9.2 mph - N/A   Clear
9:53 AM 77.0 °F - 68.0 °F 74% 29.93 in 10.0 mi South 15.0 mph - N/A   Partly Cloudy
10:53 AM 79.0 °F - 68.0 °F 69% 29.93 in 10.0 mi South 12.7 mph 21.9 mph N/A   Scattered Clouds
11:53 AM 79.0 °F - 66.0 °F 64% 29.92 in 10.0 mi SSW 13.8 mph 23.0 mph N/A   Scattered Clouds
12:53 PM 82.9 °F 85.8 °F 68.0 °F 60% 29.89 in 10.0 mi South 13.8 mph 20.7 mph N/A   Partly Cloudy
1:53 PM 82.9 °F 85.4 °F 66.9 °F 58% 29.86 in 10.0 mi South 13.8 mph 23.0 mph N/A   Scattered Clouds
2:53 PM 84.0 °F 86.5 °F 66.9 °F 56% 29.83 in 10.0 mi South 16.1 mph 26.5 mph N/A   Mostly Cloudy
3:53 PM 84.9 °F 87.1 °F 66.0 °F 53% 29.78 in 10.0 mi South 20.7 mph 27.6 mph N/A   Clear
4:53 PM 84.0 °F 86.3 °F 66.0 °F 55% 29.77 in 10.0 mi SSW 21.9 mph 29.9 mph N/A   Clear
5:53 PM 82.9 °F 85.0 °F 66.0 °F 56% 29.77 in 10.0 mi South 16.1 mph 24.2 mph N/A   Scattered Clouds
6:53 PM 81.0 °F 83.3 °F 66.9 °F 62% 29.77 in 10.0 mi SSW 12.7 mph - N/A   Mostly Cloudy
7:53 PM 80.1 °F 82.1 °F 66.0 °F 62% 29.78 in 10.0 mi SSW 9.2 mph - N/A   Mostly Cloudy
8:53 PM 73.0 °F - 63.0 °F 71% 29.81 in 10.0 mi NW 15.0 mph 23.0 mph N/A   Mostly Cloudy
9:10 PM 68.0 °F - 60.1 °F 76% 29.83 in 7.0 mi NW 19.6 mph 29.9 mph 0.00 in Rain Light Rain
9:17 PM 64.9 °F - 61.0 °F 87% 29.82 in 2.5 mi NNW 20.7 mph - 0.07 in Rain , Thunderstorm Heavy Rain
9:25 PM 64.9 °F - 62.1 °F 90% 29.84 in 6.0 mi NNW 12.7 mph - 0.13 in Rain , Thunderstorm Light Thunderstorms and Rain
10:53 PM 64.9 °F - 62.1 °F 90% 29.86 in 10.0 mi WNW 10.4 mph - 0.01 in   Mostly Cloudy
11:53 PM 64.9 °F - 62.1 °F 90% 29.83 in 10.0 mi NNE 3.5 mph - N/A   Clear